When you browse on this site, cookies collect data to enhance your experience and personalize the content and advertising you see.
Visit our Privacy Policy to learn more. By continuing to use the site, you agree to this use of cookies and data.
  • In Deutschland
  • Länderverzeichnis
  • Für 7 Tage
  • Wassertemperatur
  • Satellitenkarten
  • Wetterkarte
  • Widgets
  • user-avatar
    Anmelden

    Stündliche Wetter Ashkelon

    Heute, 16 Dezember, Sonntag

    Zeit Temperatur Niederschläge Wind Luftdruck Luftfeuchtigkeit
    00:00 +20°C° 0 mm 4 m/S 760 mmHg 57%
    01:00 +20°C° 0 mm 4 m/S 760 mmHg 57%
    02:00 +20°C° 0 mm 4 m/S 759 mmHg 55%
    03:00 +20°C° 0 mm 3 m/S 759 mmHg 56%
    04:00 +19°C° 0 mm 3 m/S 759 mmHg 56%
    05:00 +19°C° 0 mm 2 m/S 759 mmHg 57%
    06:00 +19°C° 0 mm 2 m/S 759 mmHg 56%
    07:00 +20°C° 0 mm 2 m/S 759 mmHg 56%
    08:00 +20°C° 0 mm 2 m/S 759 mmHg 57%
    09:00 +21°C° 0 mm 2 m/S 759 mmHg 54%
    10:00 +22°C° 0 mm 3 m/S 759 mmHg 51%
    11:00 +22°C° 0 mm 3 m/S 759 mmHg 47%
    12:00 +24°C° 0 mm 3 m/S 759 mmHg 47%
    13:00 +24°C° 0 mm 3 m/S 759 mmHg 47%
    14:00 +24°C° 0 mm 3 m/S 758 mmHg 49%
    15:00 +22°C° 0 mm 3 m/S 758 mmHg 51%
    16:00 +21°C° 0 mm 3 m/S 759 mmHg 53%
    17:00 +21°C° 0 mm 3 m/S 759 mmHg 55%
    18:00 +20°C° 0 mm 3 m/S 759 mmHg 55%
    19:00 +20°C° 0 mm 3 m/S 759 mmHg 55%
    20:00 +19°C° 0 mm 2 m/S 759 mmHg 56%
    21:00 +19°C° 0 mm 2 m/S 759 mmHg 55%
    22:00 +18°C° 0 mm 2 m/S 759 mmHg 55%
    23:00 +18°C° 0 mm 2 m/S 760 mmHg 54%

    Morgen, 17 Dezember, Montag

    Zeit Temperatur Niederschläge Wind Luftdruck Luftfeuchtigkeit
    00:00 +18°C° 0 mm 3 m/S 759 mmHg 51%
    01:00 +17°C° 0 mm 3 m/S 759 mmHg 49%
    02:00 +17°C° 0 mm 3 m/S 759 mmHg 46%
    03:00 +17°C° 0 mm 4 m/S 759 mmHg 45%
    04:00 +17°C° 0 mm 4 m/S 759 mmHg 43%
    05:00 +17°C° 0 mm 4 m/S 759 mmHg 42%
    06:00 +16°C° 0 mm 5 m/S 760 mmHg 43%
    07:00 +16°C° 0 mm 5 m/S 760 mmHg 44%
    08:00 +16°C° 0 mm 6 m/S 760 mmHg 44%
    09:00 +17°C° 0 mm 6 m/S 760 mmHg 45%
    10:00 +18°C° 0 mm 7 m/S 760 mmHg 46%
    11:00 +18°C° 0 mm 7 m/S 760 mmHg 46%
    12:00 +20°C° 0.1 mm 8 m/S 760 mmHg 48%
    13:00 +20°C° 0.1 mm 8 m/S 760 mmHg 49%
    14:00 +20°C° 0.1 mm 8 m/S 759 mmHg 51%
    15:00 +18°C° 0 mm 7 m/S 760 mmHg 53%
    16:00 +19°C° 0 mm 6 m/S 760 mmHg 54%
    17:00 +17°C° 0 mm 6 m/S 760 mmHg 56%
    18:00 +17°C° 0.2 mm 6 m/S 761 mmHg 56%
    19:00 +17°C° 0.2 mm 6 m/S 761 mmHg 55%
    20:00 +17°C° 0.2 mm 6 m/S 761 mmHg 55%
    21:00 +17°C° 0.6 mm 6 m/S 761 mmHg 59%
    22:00 +17°C° 0.6 mm 7 m/S 762 mmHg 63%
    23:00 +16°C° 0.6 mm 7 m/S 762 mmHg 68%

    übermorgen, 18 Dezember, Dienstag

    Zeit Temperatur Niederschläge Wind Luftdruck Luftfeuchtigkeit
    00:00 +16°C° 0.4 mm 7 m/S 762 mmHg 71%
    01:00 +16°C° 0.4 mm 7 m/S 762 mmHg 73%
    02:00 +16°C° 0.4 mm 7 m/S 762 mmHg 76%
    03:00 +15°C° 0.3 mm 7 m/S 762 mmHg 77%
    04:00 +15°C° 0.3 mm 7 m/S 762 mmHg 78%
    05:00 +15°C° 0.3 mm 6 m/S 762 mmHg 78%
    06:00 +15°C° 0.1 mm 6 m/S 762 mmHg 76%
    07:00 +15°C° 0.1 mm 6 m/S 763 mmHg 74%
    08:00 +15°C° 0.1 mm 7 m/S 763 mmHg 71%
    09:00 +16°C° 0.1 mm 6 m/S 763 mmHg 67%
    10:00 +17°C° 0.1 mm 6 m/S 763 mmHg 63%
    11:00 +19°C° 0.1 mm 6 m/S 763 mmHg 59%
    12:00 +19°C° 0 mm 6 m/S 762 mmHg 58%
    13:00 +20°C° 0 mm 5 m/S 762 mmHg 56%
    14:00 +20°C° 0 mm 5 m/S 761 mmHg 54%
    15:00 +19°C° 0 mm 4 m/S 761 mmHg 57%
    16:00 +19°C° 0 mm 4 m/S 761 mmHg 60%
    17:00 +18°C° 0 mm 3 m/S 761 mmHg 63%
    18:00 +18°C° 0 mm 3 m/S 761 mmHg 65%
    19:00 +17°C° 0 mm 3 m/S 762 mmHg 67%
    20:00 +17°C° 0 mm 3 m/S 762 mmHg 69%
    21:00 +17°C° 0 mm 3 m/S 762 mmHg 69%
    22:00 +17°C° 0 mm 3 m/S 762 mmHg 69%
    23:00 +17°C° 0 mm 3 m/S 762 mmHg 69%

    19 Dezember, Mittwoch

    Zeit Temperatur Niederschläge Wind Luftdruck Luftfeuchtigkeit
    00:00 +15°C° 0 mm 4 m/S 761 mmHg 69%
    01:00 +15°C° 0 mm 4 m/S 761 mmHg 69%
    02:00 +15°C° 0 mm 4 m/S 761 mmHg 68%
    03:00 +15°C° 0 mm 5 m/S 761 mmHg 68%
    04:00 +15°C° 0 mm 5 m/S 760 mmHg 68%
    05:00 +14°C° 0 mm 5 m/S 760 mmHg 67%
    06:00 +15°C° 0.1 mm 5 m/S 760 mmHg 65%
    07:00 +15°C° 0.1 mm 6 m/S 761 mmHg 64%
    08:00 +15°C° 0.1 mm 6 m/S 761 mmHg 62%
    09:00 +16°C° 0.3 mm 7 m/S 761 mmHg 61%
    10:00 +17°C° 0.3 mm 8 m/S 761 mmHg 60%
    11:00 +18°C° 0.3 mm 8 m/S 761 mmHg 59%
    12:00 +18°C° 0.1 mm 9 m/S 760 mmHg 56%
    13:00 +18°C° 0.1 mm 9 m/S 760 mmHg 53%
    14:00 +19°C° 0.1 mm 9 m/S 759 mmHg 50%
    15:00 +18°C° 0.3 mm 8 m/S 760 mmHg 52%
    16:00 +17°C° 0.3 mm 7 m/S 760 mmHg 53%
    17:00 +17°C° 0.3 mm 7 m/S 760 mmHg 55%
    18:00 +17°C° 0.5 mm 6 m/S 760 mmHg 57%
    19:00 +16°C° 0.5 mm 6 m/S 760 mmHg 58%
    20:00 +16°C° 0.5 mm 6 m/S 761 mmHg 60%
    21:00 +16°C° 0.8 mm 6 m/S 761 mmHg 63%
    22:00 +16°C° 0.8 mm 6 m/S 761 mmHg 66%
    23:00 +15°C° 0.8 mm 6 m/S 761 mmHg 69%

    20 Dezember, Donnerstag

    Zeit Temperatur Niederschläge Wind Luftdruck Luftfeuchtigkeit
    00:00 +15°C° 0.9 mm 6 m/S 761 mmHg 72%
    01:00 +15°C° 0.9 mm 7 m/S 761 mmHg 75%
    02:00 +15°C° 0.9 mm 7 m/S 761 mmHg 78%
    03:00 +15°C° 0.8 mm 7 m/S 761 mmHg 79%
    04:00 +15°C° 0.8 mm 7 m/S 761 mmHg 80%
    05:00 +15°C° 0.8 mm 8 m/S 761 mmHg 81%
    06:00 +15°C° 0.4 mm 7 m/S 762 mmHg 81%
    07:00 +15°C° 0.4 mm 7 m/S 762 mmHg 80%
    08:00 +15°C° 0.4 mm 7 m/S 762 mmHg 80%
    09:00 +16°C° 0.3 mm 7 m/S 763 mmHg 78%
    10:00 +16°C° 0.3 mm 7 m/S 763 mmHg 77%
    11:00 +17°C° 0.3 mm 7 m/S 763 mmHg 75%
    12:00 +17°C° 0.5 mm 7 m/S 762 mmHg 74%
    13:00 +17°C° 0.5 mm 7 m/S 762 mmHg 73%
    14:00 +17°C° 0.5 mm 6 m/S 762 mmHg 73%
    15:00 +17°C° 0.4 mm 6 m/S 762 mmHg 75%
    16:00 +17°C° 0.4 mm 5 m/S 763 mmHg 77%
    17:00 +17°C° 0.4 mm 4 m/S 763 mmHg 79%
    18:00 +17°C° 0.4 mm 4 m/S 763 mmHg 81%
    19:00 +17°C° 0.4 mm 3 m/S 764 mmHg 82%
    20:00 +17°C° 0.4 mm 3 m/S 764 mmHg 83%
    21:00 +17°C° 0.2 mm 3 m/S 764 mmHg 83%
    22:00 +17°C° 0.2 mm 2 m/S 764 mmHg 84%
    23:00 +16°C° 0.2 mm 2 m/S 764 mmHg 85%

    21 Dezember, Freitag

    Zeit Temperatur Niederschläge Wind Luftdruck Luftfeuchtigkeit
    00:00 +16°C° 0.2 mm 2 m/S 764 mmHg 85%
    01:00 +16°C° 0.2 mm 2 m/S 764 mmHg 86%
    02:00 +16°C° 0.2 mm 2 m/S 764 mmHg 87%
    03:00 +16°C° 0.1 mm 2 m/S 764 mmHg 86%
    04:00 +15°C° 0.1 mm 2 m/S 764 mmHg 86%
    05:00 +15°C° 0.1 mm 2 m/S 764 mmHg 86%
    06:00 +16°C° 0.1 mm 2 m/S 764 mmHg 84%
    07:00 +16°C° 0.1 mm 2 m/S 765 mmHg 82%
    08:00 +16°C° 0.1 mm 2 m/S 765 mmHg 80%
    09:00 +17°C° 0 mm 2 m/S 765 mmHg 75%
    10:00 +18°C° 0 mm 2 m/S 765 mmHg 71%
    11:00 +19°C° 0 mm 2 m/S 764 mmHg 66%
    12:00 +19°C° 0 mm 2 m/S 764 mmHg 64%
    13:00 +19°C° 0 mm 2 m/S 763 mmHg 63%
    14:00 +20°C° 0 mm 3 m/S 763 mmHg 61%
    15:00 +19°C° 0 mm 3 m/S 763 mmHg 64%
    16:00 +18°C° 0 mm 3 m/S 763 mmHg 66%
    17:00 +18°C° 0 mm 3 m/S 763 mmHg 69%
    18:00 +17°C° 0 mm 2 m/S 764 mmHg 71%
    19:00 +17°C° 0 mm 2 m/S 764 mmHg 73%
    20:00 +16°C° 0 mm 1 m/S 764 mmHg 76%
    21:00 +16°C° 0 mm 1 m/S 764 mmHg 77%
    22:00 +16°C° 0 mm 1 m/S 764 mmHg 78%
    23:00 +14°C° 0 mm 0 m/S 763 mmHg 79%
    Mehr zeigen